Temperature
30 32 32 32 33 32 32 32 32 32 32 32 31 31 31 29 29 28 27 26 25 25 24 23 22 21 21 21 21 21 20 20 20 19 19 19 19 19 18 18 18 18 18 18
31 31 32 32 32 32 32 32 32 32 32 31 31 31 31 30 29 28 28 27 26 25 24 23 22 22 21 21 21 21 21 20 20 19 19 19 19 18 18 19 18 18 18 18
31 32 32 31 31 31 32 32 32 32 31 32 31 31 31 30 29 28 28 27 26 25 24 23 22 22 21 21 21 21 21 20 20 20 19 19 19 19 19 18 18 18 18 18
32 32 31 31 32 32 32 32 32 32 31 32 32 31 31 31 30 29 28 27 27 25 25 23 22 22 21 21 21 21 21 21 20 20 19 19 19 19 19 18 18 18 18 18
31 32 31 31 32 32 32 32 32 32 32 32 32 32 32 31 31 30 29 28 27 26 25 24 23 22 22 21 21 21 21 21 20 20 19 19 19 19 19 18 18 18 18 18
32 32 32 32 32 32 31 31 31 32 32 31 31 31 31 32 31 31 30 28 27 26 25 24 23 22 22 21 21 21 21 20 20 20 19 19 19 19 18 18 18 18 18 18
31 31 31 31 31 31 31 31 31 30 31 31 31 31 31 31 31 30 30 28 27 26 25 24 23 22 21 21 20 20 20 20 20 20 20 19 19 19 18 18 18 18 18 18
30 30 31 31 31 31 31 32 30 30 30 31 31 31 31 31 30 29 29 28 27 26 25 24 23 22 21 21 20 20 20 20 20 20 20 19 19 18 18 18 18 18 18 18
31 31 32 31 32 32 31 32 33 32 31 31 31 31 31 30 30 29 28 28 27 26 25 24 23 22 21 21 20 20 20 20 20 19 19 19 19 19 18 18 18 18 18 18
31 30 31 31 31 31 32 32 32 31 29 29 30 31 31 30 29 29 28 28 27 26 25 24 23 22 21 21 20 20 20 20 19 19 19 19 18 18 18 18 18 18 18 18
31 30 30 31 30 31 30 31 31 31 31 30 30 31 31 29 29 29 28 27 26 26 25 24 23 22 21 21 20 20 19 19 19 19 19 19 18 18 18 17 17 17 17 17
30 30 30 30 31 31 31 31 31 30 29 30 30 30 30 30 29 28 27 26 25 25 24 23 22 21 21 20 20 20 19 19 19 19 19 18 18 18 17 17 17 17 17 17
29 29 28 29 30 30 30 30 31 31 30 30 30 30 30 29 29 27 26 25 24 23 23 22 21 21 20 20 20 19 19 19 19 18 18 18 18 18 17 17 17 17 17 16
28 29 29 29 30 30 29 30 30 30 30 30 30 30 29 29 28 27 25 24 23 23 22 21 21 20 19 19 19 19 19 18 18 18 18 18 18 17 17 17 17 16 16 16
28 28 29 29 30 30 29 29 29 29 30 30 30 29 29 28 27 26 25 24 23 22 21 21 20 19 19 19 19 18 18 18 18 18 18 18 18 17 17 17 16 16 16 16
27 27 28 28 29 29 29 29 29 29 29 29 29 29 29 27 26 25 24 23 22 22 21 20 20 19 18 18 18 18 18 18 18 18 17 17 17 17 17 17 16 16 16 16
27 26 26 27 28 28 28 28 28 28 29 29 28 28 27 26 25 24 24 23 22 22 21 20 19 19 18 18 18 18 18 17 17 17 17 17 17 17 16 16 16 16 16 16
25 25 26 27 27 25 28 28 28 28 28 28 27 27 26 25 24 23 23 23 22 21 20 20 19 19 18 18 17 17 17 17 16 16 16 16 16 16 16 16 15 15 15 15
25 24 26 26 26 26 27 26 27 26 26 26 26 26 25 23 23 23 22 21 21 20 19 19 19 18 18 17 17 17 17 16 16 16 16 16 15 15 15 15 15 15 15 15
24 24 25 25 25 25 26 26 25 26 25 25 25 24 24 23 25 24 21 20 20 19 18 18 18 18 17 17 17 17 16 16 16 16 16 15 15 15 15 15 15 14 14 14
24 23 24 25 25 26 25 25 25 25 24 24 23 23 23 23 23 21 20 19 19 18 17 17 17 17 17 17 16 16 16 16 16 15 15 15 15 15 14 14 14 14 14 14
24 24 24 24 24 24 23 24 24 23 22 22 22 22 21 21 20 19 19 18 18 17 17 16 16 16 16 16 16 16 16 16 15 15 15 14 14 14 14 14 14 14 13 13
23 23 24 24 24 22 21 21 21 20 21 20 21 20 20 19 19 19 18 17 17 17 16 16 16 16 16 16 15 15 15 15 15 15 14 14 14 14 14 14 14 13 13 13
22 21 22 22 22 21 20 20 20 19 19 19 19 19 19 19 18 18 17 17 17 16 16 16 16 16 15 15 15 15 15 15 14 14 14 14 14 13 13 13 13 13 13 13
21 21 21 21 21 20 20 19 19 18 18 18 18 18 18 18 18 17 17 16 16 16 16 15 15 15 15 15 15 14 14 14 14 14 14 14 13 13 13 13 13 13 13 13
21 20 21 21 20 20 19 18 18 18 18 18 17 17 17 17 17 16 16 16 16 15 15 15 15 15 14 14 14 14 14 14 14 14 13 13 13 13 13 13 13 13 12 12
Wind_Speed
7 9 8 6 7 7 6 6 4 1 0 3 3 2 3 6 7 7 7 8 8 8 9 9 10 9 9 8 8 7 6 6 5 4 3 3 3 2 2 1 1 1 1 1
9 11 8 6 6 8 8 7 5 2 1 4 3 3 2 5 7 6 7 8 8 8 9 10 10 10 10 10 9 8 8 7 6 5 4 3 2 2 2 1 1 1 1 1
12 5 4 6 8 9 9 8 6 4 3 5 5 5 4 5 6 6 6 7 8 8 9 9 10 10 10 10 10 8 8 8 7 6 5 4 3 3 2 2 1 1 1 1
10 6 6 9 9 10 9 6 6 6 7 4 5 5 4 4 6 7 7 7 8 8 8 9 9 10 10 9 9 9 8 8 8 7 6 6 4 3 2 2 1 1 1 2
8 8 8 9 8 9 5 3 6 7 8 8 6 6 2 4 4 5 6 7 7 8 9 9 9 9 9 9 8 9 9 8 8 7 7 6 5 4 3 3 2 2 2 2
9 6 7 7 5 5 4 5 6 8 9 10 7 7 3 1 2 2 4 5 6 7 8 8 8 8 8 8 8 8 9 9 9 8 7 7 5 4 3 3 2 2 2 2
10 10 8 7 8 8 9 9 7 8 8 8 4 6 3 1 1 2 2 4 6 7 7 8 8 8 9 9 9 9 9 9 9 9 8 7 6 5 5 4 3 3 3 2
12 11 10 8 10 8 10 11 9 8 8 6 6 6 2 1 0 0 1 3 5 6 7 8 8 8 9 9 9 9 9 9 9 9 8 7 7 6 5 5 4 4 3 3
9 9 7 6 7 9 9 10 10 10 10 9 6 4 4 3 2 1 2 3 4 5 5 7 7 8 8 9 9 8 8 8 9 9 8 7 7 6 5 5 5 4 3 3
8 8 7 6 7 6 8 8 7 10 9 10 9 8 5 3 3 2 2 2 2 3 4 5 6 6 7 8 8 7 7 7 7 8 8 6 7 6 6 5 4 4 4 4
11 10 9 9 10 10 9 9 9 9 10 11 11 6 1 1 2 2 2 1 1 2 3 4 5 5 6 6 7 7 7 7 7 7 7 6 6 5 5 4 4 5 4 4
9 10 10 10 6 5 10 11 11 11 10 11 12 7 3 1 1 1 1 0 0 1 3 4 5 5 5 6 6 6 6 7 7 7 6 6 5 5 5 4 4 4 5 5
7 9 11 11 11 8 9 10 11 12 11 12 13 7 3 2 1 0 0 1 1 2 3 4 4 4 4 5 5 5 5 5 6 6 7 6 6 5 5 4 4 4 5 6
6 10 12 13 9 7 10 11 11 13 12 13 13 10 5 3 2 1 1 1 1 2 2 3 3 3 3 4 4 4 4 4 4 5 6 6 6 5 4 4 4 5 5 6
6 11 12 12 10 9 10 11 11 12 13 14 12 10 7 4 3 2 1 1 1 2 2 3 3 3 3 3 3 3 4 4 4 4 5 4 4 4 4 4 5 5 6 6
6 9 11 12 12 12 12 12 11 12 12 12 10 9 3 1 2 2 2 2 2 2 3 3 3 3 3 3 3 3 3 4 4 5 4 4 4 4 4 4 5 5 5 5
6 8 11 13 12 12 15 13 12 11 10 10 11 6 2 3 2 3 3 2 2 2 2 3 3 3 3 3 3 3 3 3 4 4 4 4 5 4 4 5 5 5 5 5
7 8 8 11 10 15 8 4 7 10 9 8 6 4 3 2 2 2 2 2 1 1 2 2 2 3 3 3 3 3 3 3 3 4 4 4 4 4 4 4 4 4 4 4
7 8 8 10 13 12 7 4 5 8 8 5 5 4 2 2 3 2 1 2 2 2 1 1 2 2 2 2 3 4 4 4 4 4 4 4 4 4 4 5 5 4 4 4
6 8 9 10 12 12 5 2 3 6 8 3 4 4 3 4 6 1 1 2 2 2 1 1 0 0 1 2 3 3 3 3 3 4 4 4 4 5 5 5 5 4 4 5
8 8 11 12 12 8 1 1 3 8 2 1 2 3 4 3 3 2 1 1 1 1 1 1 1 1 1 1 2 3 2 3 3 3 4 4 4 5 5 5 5 5 5 5
7 8 9 10 12 7 3 1 3 2 3 1 1 1 1 1 1 1 1 1 1 1 1 0 0 0 1 1 2 2 2 2 2 3 4 4 4 5 4 4 5 5 6 6
5 5 5 5 4 2 2 1 2 2 1 1 1 1 1 1 1 1 1 1 1 1 1 0 1 1 1 1 2 2 2 2 2 3 4 4 4 5 5 5 5 5 5 5
4 2 4 4 3 1 0 0 1 2 2 1 1 1 2 2 1 1 1 1 0 0 0 1 1 1 0 0 1 2 2 2 3 4 4 4 4 4 4 4 4 4 4 5
3 3 5 6 4 3 2 2 2 1 0 1 1 1 1 1 2 2 1 1 0 1 1 1 1 1 1 1 1 2 2 2 4 4 4 4 4 3 4 4 3 4 3 4
5 5 6 6 3 4 3 3 2 1 1 1 1 1 1 1 2 2 1 1 1 1 1 2 2 1 1 1 2 2 2 3 4 4 3 4 4 3 3 3 3 2 2 2
Wind_Direction
207 231 234 238 249 268 275 268 267 292 352 264 259 258 182 182 195 191 188 188 192 195 186 187 189 188 184 184 185 186 185 177 182 184 191 186 186 194 183 183 157 226 280 294
222 230 242 260 251 246 246 251 247 230 289 280 277 269 202 190 206 204 200 198 198 193 186 189 191 192 191 189 190 189 189 185 189 182 190 196 199 198 179 195 144 232 265 279
231 239 228 239 233 233 236 250 253 261 265 243 265 231 195 185 200 205 208 207 204 200 195 191 194 196 195 193 193 192 191 189 192 189 188 187 190 209 199 201 189 211 250 272
235 225 229 234 234 239 235 240 251 243 252 255 262 268 179 184 197 206 208 208 207 201 198 193 194 196 197 194 191 190 187 187 187 188 193 197 204 208 209 223 200 215 230 264
226 220 227 235 235 240 250 236 236 243 253 261 245 267 203 177 210 210 207 206 205 199 197 195 194 193 193 188 187 186 183 184 186 190 192 204 214 211 210 220 207 254 237 252
238 222 235 240 231 221 202 206 219 233 244 248 249 260 258 193 255 236 206 206 200 195 193 191 187 184 184 180 184 184 181 185 187 191 195 203 211 218 224 238 248 250 249 253
220 217 212 221 217 199 217 230 231 230 231 244 222 249 262 325 308 275 224 199 190 188 189 185 183 183 183 183 187 188 186 190 192 195 198 203 209 211 218 234 233 252 268 267
218 213 205 212 229 223 221 238 249 260 258 248 204 242 239 130 96 273 211 184 180 185 187 185 185 186 186 187 188 189 189 193 196 198 201 204 210 222 228 230 245 245 260 273
231 222 190 207 224 237 225 237 257 265 268 268 249 239 230 201 213 200 183 179 184 189 188 184 181 184 184 183 185 186 187 193 199 200 199 204 212 224 235 236 240 247 255 260
243 239 202 192 206 215 250 244 243 253 259 263 255 249 251 237 247 220 202 198 187 186 183 176 175 175 176 176 177 179 181 192 199 201 204 204 212 218 229 238 242 253 257 265
239 238 217 207 223 223 210 225 241 254 261 266 268 262 68 235 244 247 237 239 203 183 172 162 160 161 163 166 170 176 177 190 198 199 198 207 209 218 225 231 237 244 253 256
227 241 239 227 219 253 242 239 237 247 250 257 271 270 105 159 248 285 286 221 167 161 159 152 147 145 153 160 167 175 183 193 199 199 196 202 203 209 219 229 237 246 254 257
213 235 235 225 210 207 228 236 243 251 254 255 261 258 151 168 230 241 309 160 155 150 150 143 138 143 150 158 165 174 185 197 197 196 199 200 202 200 211 222 237 250 255 261
235 237 243 249 248 230 226 230 237 248 254 258 259 263 233 226 240 233 192 175 172 153 153 149 141 144 155 166 171 180 188 193 196 200 203 200 203 203 210 225 236 246 254 255
233 240 245 256 260 254 248 245 239 244 259 269 272 263 255 246 244 236 210 184 180 181 180 171 160 157 170 180 183 187 188 189 193 195 198 197 196 201 213 221 232 238 246 253
235 245 246 248 247 248 248 245 245 248 257 262 262 263 277 278 240 232 223 217 223 223 210 198 192 186 194 197 198 194 191 186 183 188 195 194 194 197 211 223 232 237 244 253
230 236 244 247 242 245 245 244 243 246 252 254 259 262 224 234 245 254 246 234 250 247 224 216 214 211 211 213 209 195 185 181 181 192 200 195 198 205 219 229 234 238 239 247
234 238 241 247 240 242 250 245 245 251 255 257 257 239 234 251 252 261 265 281 284 266 237 230 232 225 212 194 188 179 171 174 186 197 208 214 215 216 229 238 239 249 254 252
230 228 239 243 240 243 230 218 239 244 251 248 236 225 220 229 227 195 75 343 313 307 275 254 256 231 196 184 172 168 169 179 196 209 218 224 231 233 237 242 243 248 257 258
203 219 237 240 248 250 245 180 240 244 237 217 226 225 218 228 248 209 30 324 324 336 333 274 242 184 177 178 173 174 182 196 214 228 234 235 237 241 245 248 251 251 252 253
206 217 232 241 246 249 24 98 215 234 253 107 217 226 226 248 315 6 359 19 7 355 330 283 214 192 176 179 181 193 206 226 239 247 247 246 242 242 242 248 250 252 254 253
231 228 229 239 244 239 72 178 245 323 28 15 298 240 238 343 354 353 4 16 15 21 43 42 216 140 128 169 187 200 218 243 252 253 252 251 252 251 244 242 246 250 249 244
239 261 256 251 260 24 33 325 346 341 329 326 285 258 239 254 276 322 343 3 40 46 31 298 216 140 119 170 202 220 238 246 250 251 255 254 254 251 248 243 244 247 246 252
216 269 263 255 235 285 224 333 344 316 296 295 266 243 253 263 274 277 300 330 35 33 293 269 227 160 138 246 245 264 260 258 253 255 261 264 261 259 260 260 258 262 264 268
263 231 243 244 243 243 225 272 306 336 307 234 250 258 269 273 271 269 264 262 266 283 290 283 270 246 253 284 281 282 284 268 264 266 275 277 276 277 268 271 283 271 279 280
243 245 246 250 245 259 246 249 283 304 298 287 283 279 288 277 277 281 281 293 293 295 304 301 297 291 294 293 288 294 289 270 264 264 270 275 276 276 273 271 281 340 268 257
Height
1508 1505 1502 1499 1498 1499 1499 1501 1502 1500 1499 1501 1501 1502 1503 1508 1510 1512 1515 1518 1520 1522 1525 1527 1528 1530 1532 1533 1534 1535 1537 1538 1539 1540 1541 1542 1542 1543 1544 1544 1543 1543 1543 1542
1504 1502 1498 1498 1499 1500 1500 1502 1501 1499 1499 1501 1500 1501 1500 1505 1508 1510 1513 1515 1517 1520 1522 1524 1526 1528 1530 1531 1532 1533 1535 1536 1538 1539 1540 1541 1542 1543 1543 1543 1543 1543 1542 1542
1501 1497 1498 1500 1500 1501 1500 1500 1500 1502 1500 1498 1500 1502 1500 1502 1506 1508 1511 1513 1515 1517 1519 1521 1523 1525 1527 1528 1530 1532 1533 1534 1536 1537 1539 1540 1541 1542 1543 1543 1542 1542 1542 1542
1497 1495 1498 1499 1498 1497 1500 1495 1497 1500 1502 1500 1500 1507 1498 1497 1501 1504 1507 1509 1512 1514 1516 1518 1520 1522 1524 1526 1528 1529 1531 1532 1534 1535 1537 1539 1540 1541 1541 1542 1542 1541 1541 1540
1495 1495 1497 1498 1496 1495 1495 1494 1496 1497 1499 1501 1498 1503 1497 1493 1498 1499 1502 1505 1508 1511 1513 1516 1517 1519 1522 1524 1526 1527 1528 1530 1532 1533 1535 1536 1538 1539 1540 1540 1540 1540 1540 1539
1491 1493 1494 1493 1493 1494 1495 1497 1497 1496 1496 1510 1501 1504 1502 1493 1495 1495 1498 1502 1505 1508 1511 1513 1516 1517 1519 1521 1523 1525 1526 1528 1529 1531 1533 1534 1536 1537 1537 1538 1538 1539 1539 1538
1494 1492 1492 1493 1494 1494 1494 1499 1507 1511 1510 1507 1495 1501 1500 1491 1492 1494 1497 1500 1503 1506 1508 1511 1513 1515 1516 1518 1520 1522 1524 1525 1527 1529 1530 1531 1533 1534 1534 1535 1536 1536 1537 1536
1497 1496 1489 1489 1490 1490 1491 1492 1507 1517 1512 1501 1498 1500 1492 1490 1494 1495 1497 1499 1501 1504 1506 1508 1510 1512 1514 1516 1518 1520 1521 1523 1525 1526 1527 1529 1530 1532 1533 1533 1533 1534 1534 1533
1489 1492 1484 1486 1487 1487 1490 1489 1484 1493 1497 1502 1495 1493 1490 1490 1492 1494 1496 1498 1500 1502 1504 1505 1508 1510 1512 1514 1515 1517 1518 1520 1522 1524 1525 1526 1527 1528 1530 1530 1530 1531 1530 1530
1484 1492 1484 1486 1487 1488 1486 1484 1489 1494 1511 1512 1501 1495 1491 1490 1491 1492 1495 1496 1498 1500 1502 1504 1506 1508 1510 1511 1513 1514 1515 1517 1519 1521 1522 1524 1525 1525 1526 1527 1528 1528 1528 1527
1483 1490 1487 1485 1488 1486 1490 1490 1490 1489 1492 1505 1507 1496 1482 1487 1489 1491 1494 1496 1498 1499 1501 1503 1504 1506 1508 1509 1511 1512 1512 1514 1516 1517 1519 1520 1521 1523 1524 1524 1524 1525 1525 1524
1484 1485 1487 1483 1480 1481 1481 1482 1486 1496 1499 1495 1497 1494 1481 1486 1488 1492 1494 1496 1498 1499 1500 1502 1504 1505 1506 1508 1509 1510 1511 1512 1514 1515 1515 1517 1518 1519 1521 1521 1521 1521 1521 1521
1484 1487 1495 1492 1488 1485 1484 1482 1481 1481 1486 1490 1495 1492 1482 1486 1489 1492 1495 1497 1498 1499 1500 1501 1502 1503 1505 1506 1507 1508 1509 1510 1511 1512 1513 1514 1515 1516 1517 1518 1518 1518 1518 1517
1486 1483 1488 1491 1483 1478 1483 1482 1481 1482 1485 1487 1486 1485 1483 1485 1489 1492 1495 1497 1498 1499 1500 1501 1501 1502 1503 1504 1505 1506 1507 1508 1508 1509 1510 1511 1512 1512 1513 1514 1515 1515 1515 1515
1484 1484 1481 1478 1475 1477 1479 1480 1480 1483 1481 1483 1480 1481 1480 1484 1489 1492 1494 1496 1498 1499 1499 1500 1501 1501 1502 1503 1503 1504 1504 1505 1506 1506 1507 1508 1508 1509 1510 1511 1512 1512 1512 1512
1484 1484 1483 1483 1477 1477 1479 1478 1479 1480 1479 1479 1479 1481 1481 1486 1490 1492 1494 1496 1497 1498 1499 1499 1500 1500 1501 1501 1501 1502 1502 1502 1503 1504 1505 1505 1506 1506 1507 1508 1508 1508 1508 1508
1483 1485 1487 1484 1477 1479 1483 1477 1477 1477 1475 1478 1481 1481 1484 1487 1490 1492 1493 1494 1496 1497 1498 1498 1498 1498 1499 1499 1499 1500 1500 1500 1501 1502 1502 1503 1503 1504 1504 1505 1505 1504 1503 1504
1486 1486 1483 1481 1485 1495 1477 1471 1473 1475 1476 1476 1479 1482 1485 1488 1491 1492 1493 1494 1495 1496 1496 1497 1497 1497 1497 1497 1497 1498 1498 1499 1499 1500 1500 1501 1501 1501 1501 1501 1501 1501 1500 1500
1483 1485 1483 1481 1483 1480 1475 1475 1476 1478 1479 1479 1481 1483 1486 1489 1489 1490 1493 1494 1495 1495 1495 1495 1496 1496 1495 1495 1495 1495 1496 1497 1498 1498 1498 1498 1498 1498 1498 1498 1498 1497 1496 1496
1482 1484 1483 1482 1486 1485 1475 1474 1477 1479 1481 1481 1483 1484 1486 1488 1485 1487 1492 1492 1493 1494 1494 1494 1494 1494 1493 1493 1493 1494 1495 1495 1495 1495 1495 1495 1495 1495 1495 1495 1495 1494 1493 1493
1482 1483 1482 1480 1481 1474 1475 1477 1479 1484 1482 1482 1483 1485 1486 1487 1488 1491 1491 1492 1492 1492 1492 1492 1492 1492 1492 1491 1491 1492 1493 1493 1493 1493 1492 1492 1492 1492 1491 1491 1491 1491 1490 1489
1478 1478 1481 1479 1482 1481 1479 1479 1480 1482 1483 1484 1485 1486 1487 1489 1489 1490 1491 1491 1491 1490 1490 1490 1490 1490 1489 1489 1490 1490 1490 1491 1490 1490 1489 1489 1488 1489 1488 1487 1487 1487 1487 1486
1477 1477 1475 1477 1479 1481 1482 1482 1484 1485 1485 1486 1486 1487 1488 1488 1489 1489 1489 1489 1489 1489 1489 1489 1488 1488 1488 1488 1488 1488 1488 1488 1488 1487 1487 1486 1485 1484 1484 1483 1483 1484 1484 1484
1479 1482 1480 1479 1478 1481 1483 1483 1484 1485 1485 1486 1486 1487 1487 1488 1488 1488 1488 1488 1487 1487 1486 1487 1486 1485 1486 1486 1486 1486 1486 1486 1485 1484 1484 1483 1482 1481 1481 1480 1480 1481 1481 1480
1479 1481 1480 1481 1481 1483 1483 1484 1484 1484 1484 1485 1485 1486 1486 1486 1486 1486 1486 1486 1486 1485 1486 1486 1485 1484 1484 1484 1483 1483 1483 1482 1482 1482 1481 1480 1479 1479 1477 1477 1477 1477 1476 1476
1480 1480 1480 1479 1481 1482 1483 1483 1483 1483 1483 1484 1484 1484 1485 1485 1485 1485 1485 1485 1484 1484 1484 1484 1483 1482 1482 1481 1481 1480 1480 1479 1479 1478 1478 1477 1477 1476 1475 1474 1473 1472 1472 1472